Weather Roundup
Issued by NWS

Home | Current Version | Previous Version | Graphics & Text | Print | Product List | Glossary Off
Versions: 1 2 3 4 5 6 7 8 9 10 11 12 13 14 15 16 17 18 19 20 21 22 23 24 25 26 27 28 29 30 31 32 33 34 35 36 37 38 39 40 41 42 43 44 45 46 47 48 49 50

852
NZUS93 KARX 182010
HRRWXR

CURRENT HOURLY OBSERVATIONS ACROSS
MUCH OF THE UPPER MISSISSIPPI VALLEY
NATIONAL WEATHER SERVICE LA CROSSE WI
300 PM CDT WED OCT 18 2017


...SOUTHEAST MINNESOTA...


CITY           SKY/WX    TMP DP  RH WIND       PRES   REMARKS
ROCHESTER      MOSUNNY   71  50  47 W26       29.88R
ROCHESTER/MAYO FAIR      71  47  42 W13G18    29.87R
WINONA         PTSUNNY   73  46  38 SW8G18    29.84S
AUSTIN         MOSUNNY   72  46  40 SW16G22   29.89R
ALBERT LEA     NOT AVBL
DODGE CENTER   MOSUNNY   68  45  42 W20       29.89R
PRESTON        MOSUNNY   70  47  43 SW14G23   29.87F
OWATONNA       MOSUNNY   72  48  43 W13       29.89R
FARIBAULT      CLOUDY    72  45  37 W9        29.88S
$$

...ELSEWHERE IN MINNESOTA...


CITY           SKY/WX    TMP DP  RH WIND       PRES   REMARKS
MINNEAPOLIS    CLOUDY    70  45  40 W10       29.84F
INTNL FALLS    SUNNY     61  21  21 W16G31    29.64R
DULUTH         MOSUNNY   67  33  28 W25G31    29.70S
RED WING       MOSUNNY   72  43  35 W15       29.84R
REDWOOD FALLS  SUNNY     72  29  20 NW12      29.90R
MANKATO        CLOUDY    71  39  31 NW12      29.88S
WORTHINGTON    SUNNY     72  34  24 N15       29.94R
FAIRMONT       CLOUDY    73  37  27 NW17      29.90F
$$

...SOUTHWEST WISCONSIN...


CITY           SKY/WX    TMP DP  RH WIND       PRES   REMARKS
LA CROSSE      SUNNY     76  47  35 S23G33    29.83F
PRAIRIE DU CHI SUNNY     73  42  33 S16       29.90S
BOSCOBEL       SUNNY     75  46  35 S14G21    29.91F
LONE ROCK      SUNNY     72  48  42 S18G28    29.91F
PLATTEVILLE    SUNNY     72  47  42 S20G25    29.96F
FORT MC COY    SUNNY     72  47  40 S12G21    29.87S
CAMP DOUGLAS   MOSUNNY   73  48  40 SW13G25   29.88R
MAUSTON-NEW LI CLEAR     73  48  41 SW14G28   29.88S
VIROQUA        FAIR      72  48  43 SW14G28   29.93R
WIS DELLS      SUNNY     70  44  38 SW22G32   29.90F
$$

...ELSEWHERE IN WISCONSIN...


CITY           SKY/WX    TMP DP  RH WIND       PRES   REMARKS
MILWAUKEE      MOSUNNY   72  45  37 S16G25    29.99F
MADISON        MOSUNNY   71  46  40 S21G30    29.94F
GREEN BAY      SUNNY     70  50  49 S18G31    29.87F
EAU CLAIRE     MOSUNNY   71  48  43 W17G24    29.81R
BLACK RVR FLS  FAIR      75  42  31 SW10G22   29.83F
MEDFORD        SUNNY     70  47  43 S20G26    29.79F
WAUSAU         LGT RAIN  71  47  42 S16G26    29.80F
WIS RAPIDS     SUNNY     73  48  41 SW15G25   29.87F
MARSHFIELD     SUNNY     71  44  37 SW23G33   29.82F
RICE LAKE      MOSUNNY   67  45  45 SW13G21   29.82S
$$

...NORTHEAST IOWA...


CITY           SKY/WX    TMP DP  RH WIND       PRES   REMARKS
WATERLOO       SUNNY     74  45  35 SW18      29.90F
DUBUQUE        SUNNY     71  47  42 SW20G29   29.95F
DECORAH        SUNNY     73  46  38 SW15G23   29.89R
MASON CITY     SUNNY     72  48  42 W15       29.91S
CHARLES CITY   MOSUNNY   75  45  33 SW16G24   29.90F
OELWEIN        SUNNY     73  46  38 S21G28    29.92S
$$

...ELSEWHERE IN IOWA...


CITY           SKY/WX    TMP DP  RH WIND       PRES   REMARKS
DES MOINES     MOSUNNY   75  48  38 S15       29.92S
IOWA CITY      MOSUNNY   74  46  36 S18G25    29.98F
FORT DODGE     SUNNY     75  50  41 W13       29.91S
MARSHALLTOWN   SUNNY     73  49  42 S17       29.91F
CEDAR RAPIDS   SUNNY     73  46  38 S18G25    29.95F
$$

...NORTHERN ILLINOIS...


CITY           SKY/WX    TMP DP  RH WIND       PRES   REMARKS
CHICAGO-OHARE  SUNNY     70  42  36 SW16G28   30.05F
CHICAGO-MIDWAY SUNNY     71  40  32 SW22G30   30.06F
MOLINE         SUNNY     74  43  32 S15G21    29.99F
ROCKFORD       MOSUNNY   71  44  37 S20G26    30.02F
PEORIA         SUNNY     71  44  37 S18G26    30.06F
$$

NOTE: "FAIR" INDICATES FEW OR NO CLOUDS BELOW 12,000 FEET WITH NO
SIGNIFICANT WEATHER AND/OR OBSTRUCTIONS TO VISIBILITY. WIND
SPEEDS ARE IN MILES-PER-HOUR.




USA.gov is the U.S. government's official web portal to all federal, state and local government web resources and services.